Dewpoint
4 4 4 4 4 3 4 3 2 1 0 -0 -4 -5 -5 -1 1 -2 -5 -11 -12 -10 -9 -9 -8 -8 -7 -7 -7 -7 -7 -8 -9 -10 -12 -15 -18 -21 -21 -21 -20 -16 -9
5 5 5 5 5 4 5 4 2 1 0 0 -2 -5 -5 -3 -3 -2 -5 -13 -14 -12 -11 -10 -9 -8 -8 -7 -7 -7 -7 -8 -9 -10 -13 -16 -20 -22 -22 -22 -18 -15 -2
5 5 6 5 4 1 2 2 0 0 -0 -2 -2 -3 -5 -4 -4 -3 -7 -14 -14 -13 -11 -10 -9 -9 -8 -8 -8 -7 -7 -8 -9 -10 -13 -18 -21 -23 -23 -19 -20 -6 1
5 5 5 5 4 2 0 -1 -2 -2 -1 -1 -2 -3 -4 -5 -5 -3 -4 -13 -14 -14 -12 -11 -10 -9 -9 -9 -8 -7 -7 -8 -9 -11 -15 -19 -22 -24 -24 -17 -8 1 2
6 6 5 5 4 3 2 1 0 -1 -2 -2 -3 -3 -3 -4 -4 -2 -3 -10 -13 -13 -12 -11 -11 -10 -10 -9 -8 -7 -8 -8 -9 -11 -15 -20 -23 -25 -23 -22 -4 1 1
5 6 6 6 5 4 3 2 1 -1 -1 -1 -2 -2 -2 -2 -2 -1 -1 -4 -9 -12 -12 -12 -11 -10 -10 -9 -8 -7 -8 -8 -9 -11 -16 -20 -22 -26 -25 -15 0 1 1
5 5 5 5 4 3 2 1 -1 0 0 0 -0 -1 -1 -1 -1 -1 -1 -2 -3 -5 -10 -12 -12 -11 -9 -9 -8 -7 -7 -8 -9 -10 -16 -18 -22 -27 -29 -6 1 1 2
6 5 5 5 5 4 2 2 1 1 2 2 1 0 0 0 -0 -0 -1 -2 -2 -3 -5 -7 -8 -9 -9 -8 -8 -8 -8 -8 -9 -11 -15 -19 -22 -27 -26 -9 0 1 1
7 7 6 5 4 2 2 2 2 2 3 3 2 1 0 -0 -0 0 -0 -1 -1 -1 -2 -2 -3 -4 -7 -8 -8 -8 -8 -8 -9 -11 -16 -20 -24 -30 -28 -18 -0 1 1
8 7 7 6 6 5 4 3 2 2 3 4 3 2 1 1 1 0 0 0 0 -0 -1 -1 -1 -2 -4 -6 -7 -8 -8 -8 -8 -11 -16 -20 -25 -30 -33 -28 -4 0 0
8 8 8 7 6 6 6 5 4 4 4 4 4 3 2 2 2 2 2 2 2 1 1 -0 -1 -1 -3 -4 -6 -8 -8 -8 -9 -11 -16 -19 -25 -30 -34 -33 -8 -1 0
9 8 8 8 7 7 7 6 5 5 5 5 5 5 4 3 3 3 2 2 3 3 2 0 -2 -3 -3 -3 -5 -7 -8 -8 -9 -11 -15 -19 -25 -29 -34 -33 -16 -3 -1
9 9 9 8 8 7 7 7 7 5 5 5 5 5 4 4 4 4 4 3 3 2 2 1 -3 -5 -6 -5 -6 -7 -8 -9 -9 -12 -15 -19 -21 -26 -34 -32 -24 -14 -4
9 9 9 9 8 8 8 7 7 7 6 5 5 5 5 5 4 1 2 3 2 1 1 -2 -8 -9 -8 -7 -7 -7 -8 -9 -10 -13 -18 -13 -12 -19 -34 -31 -22 -17 -13
8 8 9 9 9 9 8 8 7 7 6 7 6 5 5 5 5 1 -1 0 1 0 -3 -8 -9 -10 -9 -8 -6 -6 -7 -9 -11 -13 -14 -7 -3 -24 -34 -31 -22 -17 -16
8 8 9 9 10 10 8 8 8 7 7 6 7 7 6 5 5 5 1 -2 -3 -3 -4 -8 -9 -11 -11 -9 -7 -7 -8 -9 -12 -15 -10 -2 -3 -31 -33 -28 -20 -17 -14
9 8 8 9 9 9 9 8 8 8 8 7 7 7 7 6 6 5 5 3 -1 -6 -8 -8 -9 -10 -11 -9 -8 -8 -9 -10 -14 -16 -7 -1 -8 -31 -32 -26 -20 -17 -15
9 10 9 9 9 9 9 9 9 9 8 8 7 7 7 7 6 6 6 5 5 3 -1 -2 -6 -7 -9 -10 -9 -9 -10 -12 -16 -16 -3 -0 -17 -32 -28 -21 -18 -17 -14
9 9 9 10 10 10 11 10 10 10 9 8 7 7 7 7 7 7 7 7 7 6 4 1 -2 -3 -5 -8 -9 -10 -11 -14 -18 -12 -1 -1 -24 -31 -26 -21 -16 -16 -14
9 8 9 9 9 9 9 9 10 10 10 9 8 7 7 7 7 6 6 5 6 7 7 5 4 -1 -4 -6 -10 -11 -12 -14 -17 -7 -0 -3 -28 -28 -24 -19 -16 -15 -14
9 9 9 9 8 9 9 9 9 9 9 9 9 8 8 7 7 7 7 6 7 7 7 7 5 2 1 -3 -2 -6 -12 -16 -10 -2 1 -2 -27 -26 -24 -16 -15 -14 -13
8 8 9 9 9 10 9 9 9 9 9 8 8 8 8 7 7 6 7 8 8 8 8 8 7 6 5 1 -3 -4 -15 -11 -4 -2 -1 -20 -23 -26 -21 -17 -16 -15 -13
10 10 10 10 10 10 10 10 11 11 10 10 10 9 9 9 9 8 8 9 9 9 9 8 8 7 7 4 1 -10 -9 -3 -3 -1 -6 -13 -20 -24 -18 -16 -15 -13 -11
9 9 10 10 9 9 9 9 10 10 10 10 10 10 10 10 10 10 10 10 9 9 9 9 8 7 6 3 1 -4 -1 -2 -2 -2 -9 -16 -20 -19 -18 -16 -14 -11 -10
5 6 6 7 8 9 8 9 8 9 9 9 9 9 9 9 9 9 9 9 9 8 8 8 7 7 3 1 0 -2 -1 -3 -2 -5 -10 -23 -16 -12 -17 -15 -12 -10 -10
-1 0 1 3 4 5 6 7 7 8 8 7 8 8 8 8 8 8 8 8 8 8 8 6 7 6 2 1 0 -0 -2 -2 -3 -9 -19 -12 -6 -14 -16 -13 -11 -10 -11
Wind_Speed
12 13 12 10 8 7 6 6 5 7 8 8 9 8 9 10 10 9 9 9 9 9 9 10 9 10 13 14 15 16 18 20 21 21 22 22 23 23 24 24 24 25 24
11 11 11 10 8 7 7 6 6 6 7 7 7 8 7 8 8 7 7 6 6 6 6 6 8 10 12 14 15 17 19 20 21 22 22 23 23 23 24 24 24 24 23
10 9 9 9 8 7 8 7 7 7 6 6 6 7 7 7 7 6 5 4 4 3 3 4 6 8 11 13 16 18 19 19 20 21 22 23 23 24 25 25 25 24 23
9 8 8 8 8 8 7 7 6 7 6 6 5 6 7 6 6 6 5 4 3 1 1 3 5 7 10 12 14 16 18 19 20 21 22 22 23 24 24 24 23 22 22
8 7 7 8 7 7 7 7 6 7 6 6 6 5 6 6 7 6 5 4 4 3 2 2 4 6 8 11 13 15 17 19 20 21 22 22 23 24 23 24 22 21 22
9 8 8 8 7 8 8 8 8 8 8 7 7 7 7 8 8 8 8 7 6 5 5 4 5 7 9 11 12 14 16 18 20 21 21 22 23 24 24 23 20 20 20
8 7 6 7 7 7 8 9 9 9 9 8 8 9 9 9 10 10 10 10 9 9 8 7 7 8 9 11 12 14 16 17 20 21 21 23 23 23 24 21 18 19 19
6 5 5 6 7 8 9 9 9 10 10 11 10 9 6 10 13 13 13 13 12 12 11 11 11 11 11 11 12 13 15 17 19 20 21 23 23 23 23 20 18 18 15
4 5 5 6 6 7 8 9 10 11 11 11 12 10 5 6 4 11 15 16 15 15 15 14 14 14 13 12 13 14 16 17 19 20 20 22 23 23 23 22 18 16 16
8 6 5 6 8 6 7 9 10 11 12 13 14 16 15 11 4 5 7 11 16 17 18 18 18 17 16 15 15 15 17 18 20 20 20 22 23 23 23 23 19 15 16
13 12 10 8 8 9 9 9 12 12 13 14 15 16 17 18 18 16 15 13 13 14 17 19 20 20 19 18 18 18 19 19 20 20 21 23 23 24 25 24 18 15 15
17 16 15 14 10 9 10 10 11 14 14 15 16 17 19 20 19 19 20 21 21 20 19 19 20 20 20 20 20 21 21 20 20 21 21 23 23 24 24 23 18 14 15
21 20 19 18 17 13 12 11 14 14 16 17 17 18 19 20 21 22 23 24 24 23 23 22 20 20 21 21 21 22 21 21 20 21 22 23 25 25 25 23 20 17 15
24 22 22 21 20 18 17 17 16 17 15 17 18 19 19 20 21 22 23 23 24 25 26 24 22 22 21 21 22 22 22 21 21 21 21 23 26 26 24 23 20 19 18
25 24 23 25 23 24 22 22 21 19 21 19 19 19 21 20 21 21 22 23 23 24 26 24 22 21 20 21 21 22 22 22 22 22 21 23 28 24 23 22 20 19 17
23 28 29 27 26 27 25 25 27 25 24 24 23 23 22 22 22 22 22 22 24 25 29 26 24 23 23 23 23 23 23 23 23 22 21 26 26 24 23 22 19 17 16
27 27 29 30 29 28 27 28 31 30 29 27 27 27 25 24 24 24 24 24 24 25 28 29 28 28 27 26 25 25 24 24 22 21 21 25 25 23 22 20 18 17 16
28 30 30 31 32 29 28 31 33 32 33 32 30 30 28 27 26 25 26 26 26 27 29 30 29 29 29 28 27 27 27 25 23 22 22 27 23 22 21 19 18 16 16
31 29 31 32 33 34 34 33 33 33 34 34 33 32 31 30 30 28 27 28 28 29 30 32 32 31 31 30 30 29 28 25 23 22 26 27 22 22 20 19 18 17 15
32 33 31 31 30 31 32 33 34 34 34 34 35 35 34 33 32 31 30 30 32 32 33 33 34 34 33 32 31 31 30 26 23 25 28 24 22 21 20 16 16 17 16
32 34 33 33 34 34 35 36 36 36 35 36 36 36 36 35 35 36 36 35 37 37 37 37 38 38 37 36 34 32 29 25 25 26 30 22 20 20 19 16 16 17 16
34 34 35 34 35 36 35 35 36 37 37 38 39 39 39 39 38 39 42 42 41 43 43 43 44 43 43 40 38 32 28 29 28 27 23 16 19 19 16 15 15 16 14
33 34 35 35 35 35 35 33 34 35 37 39 40 40 42 41 41 44 45 46 48 48 48 48 48 48 48 43 41 35 34 31 27 27 18 19 18 17 15 14 15 14 12
25 27 32 34 35 38 37 36 38 37 37 39 40 39 40 40 40 42 46 46 47 48 48 48 47 48 46 42 42 39 33 26 28 23 17 20 17 14 13 14 14 13 10
28 29 31 31 31 30 29 29 29 32 34 39 38 39 41 42 40 37 40 41 42 42 40 42 42 45 45 45 39 35 31 26 27 19 19 17 15 11 15 13 12 12 11
25 27 29 31 34 37 37 39 40 41 41 40 39 39 39 38 36 35 39 36 39 40 41 40 45 45 45 42 36 33 28 28 23 18 19 17 14 12 8 10 9 10 13
Wind_Direction
159 159 156 154 151 148 145 142 133 130 122 119 121 125 126 130 123 113 112 106 103 98 87 77 66 55 46 38 32 26 24 23 20 18 14 12 10 9 6 6 4 3 5
167 165 164 162 169 170 164 154 147 144 136 123 126 132 137 142 139 133 122 114 109 99 87 71 55 44 35 29 25 22 21 19 17 14 11 9 8 6 4 3 2 2 3
167 171 173 172 176 167 167 167 165 160 157 140 139 139 148 154 150 149 144 135 124 109 80 52 39 31 27 22 19 17 15 14 12 11 9 6 6 4 3 1 1 2 2
169 177 181 179 179 175 167 169 170 169 170 164 163 159 158 160 163 169 174 167 172 181 17 16 14 14 19 17 14 11 9 8 9 8 6 4 3 2 1 359 1 3 1
177 176 182 186 187 187 185 185 189 187 191 193 188 182 176 177 184 193 199 206 217 238 271 322 340 355 3 5 5 5 5 4 4 3 2 1 0 359 358 357 360 1 1
188 189 189 193 201 203 207 210 205 205 201 202 204 197 198 202 209 213 221 227 234 249 264 284 309 333 343 350 355 358 359 358 357 359 357 357 357 356 355 356 360 360 2
191 193 204 213 217 217 212 211 211 209 212 207 210 215 218 224 228 231 235 240 247 257 267 279 296 311 326 338 344 347 349 350 352 353 352 352 353 353 352 355 358 0 8
205 212 224 222 227 223 220 220 225 227 222 219 217 223 231 244 246 245 244 248 254 260 266 274 289 303 312 321 327 331 336 344 346 347 348 347 348 350 350 351 355 356 3
215 220 233 233 222 219 229 232 234 234 237 235 231 225 228 236 273 252 251 255 259 263 268 275 283 289 296 307 316 320 326 333 339 342 342 342 345 346 346 347 353 358 353
236 230 232 242 234 232 235 240 237 237 239 242 242 239 243 256 278 290 278 271 268 269 273 277 280 285 290 296 303 310 317 325 331 336 336 338 341 341 343 343 346 351 348
244 243 244 250 248 250 258 252 247 244 245 246 248 254 255 260 265 267 280 291 288 291 286 284 281 282 285 290 294 303 309 318 326 332 332 334 338 339 339 338 340 345 350
250 251 250 252 254 252 262 267 259 251 254 255 254 256 256 259 268 273 276 283 287 287 288 287 284 283 284 286 290 297 304 312 318 323 327 332 335 335 335 335 336 342 346
257 255 255 256 258 267 264 271 269 263 259 259 260 261 262 263 266 270 273 277 280 281 282 285 284 284 285 286 288 293 299 304 312 319 324 329 331 331 331 332 332 332 340
259 264 260 261 261 265 266 266 274 268 267 263 262 264 266 268 269 270 271 273 275 277 280 282 286 286 284 283 286 291 294 299 307 313 319 324 328 327 328 330 329 329 334
260 262 263 262 263 260 261 265 269 273 269 269 268 268 267 267 269 270 269 269 268 271 280 286 284 284 282 282 284 288 290 295 301 306 314 321 324 325 326 327 326 327 330
268 265 258 261 262 263 259 259 264 266 268 267 268 269 270 269 268 271 272 270 269 269 269 278 283 284 283 282 283 284 287 291 296 301 308 317 323 321 324 323 321 320 322
266 264 264 261 263 260 260 257 262 264 264 266 266 266 269 271 269 270 271 271 271 269 270 277 278 281 281 280 280 281 283 283 286 294 300 315 317 315 318 314 314 317 321
265 265 260 259 260 260 259 256 259 262 262 262 264 265 267 268 270 271 271 271 272 271 271 275 276 276 277 278 276 276 275 277 282 286 301 312 311 311 310 307 309 315 320
258 263 264 259 257 256 258 259 261 264 262 262 262 264 266 266 266 270 272 272 270 269 269 270 272 273 274 274 272 271 272 273 277 286 302 309 305 304 303 306 310 314 315
252 256 256 256 257 257 257 260 262 264 267 266 264 263 264 264 264 265 266 268 268 268 269 269 270 270 269 270 270 269 265 269 272 288 298 297 294 294 299 303 300 305 311
253 255 259 257 257 257 259 260 261 263 264 264 264 265 267 265 266 266 263 263 267 268 266 266 265 264 264 262 266 271 265 262 265 284 289 292 284 291 294 294 298 300 302
256 257 258 259 260 260 259 260 262 262 261 262 263 264 263 261 261 265 266 264 264 266 266 265 264 264 266 263 261 260 253 251 269 282 283 274 282 286 282 287 291 290 291
250 253 256 259 261 261 261 262 263 264 263 262 263 263 263 262 261 261 264 264 263 264 265 264 263 267 267 266 265 254 252 264 268 275 266 270 276 278 280 293 289 284 283
246 246 250 252 255 260 262 264 261 262 264 263 263 265 268 267 267 267 267 268 268 267 266 269 271 267 267 263 261 258 266 259 264 258 252 261 267 268 289 292 279 270 282
256 258 257 255 256 255 256 257 263 259 263 267 264 264 266 269 270 269 270 271 273 271 269 267 267 268 259 256 258 259 251 254 255 247 248 250 263 277 282 277 260 265 278
268 265 264 263 262 261 258 259 258 260 264 263 262 265 265 267 271 273 271 272 275 273 273 265 270 261 256 263 261 260 250 253 238 235 235 237 259 274 276 260 244 269 287
Height
1594 1596 1596 1597 1598 1600 1601 1603 1604 1605 1605 1606 1607 1608 1608 1609 1610 1611 1612 1612 1612 1612 1612 1611 1611 1610 1610 1609 1608 1607 1605 1602 1599 1596 1594 1591 1589 1585 1582 1578 1574 1571 1567
1596 1597 1598 1598 1600 1601 1602 1604 1605 1606 1607 1607 1608 1609 1609 1610 1611 1613 1613 1614 1614 1613 1613 1612 1612 1612 1611 1610 1609 1607 1604 1602 1599 1597 1594 1591 1588 1585 1581 1577 1574 1570 1567
1596 1597 1599 1600 1601 1602 1603 1604 1605 1606 1607 1608 1609 1609 1610 1612 1612 1613 1614 1614 1614 1614 1613 1613 1613 1612 1611 1610 1608 1606 1604 1602 1599 1597 1594 1591 1588 1584 1581 1577 1573 1569 1566
1596 1597 1599 1600 1601 1602 1602 1603 1605 1606 1607 1608 1609 1610 1611 1612 1612 1613 1614 1614 1614 1614 1614 1613 1613 1612 1611 1609 1608 1605 1603 1601 1599 1596 1593 1590 1587 1583 1580 1576 1572 1569 1565
1595 1597 1598 1599 1600 1601 1602 1603 1604 1606 1607 1608 1609 1610 1611 1611 1612 1613 1613 1613 1613 1613 1613 1613 1612 1611 1610 1609 1607 1605 1603 1600 1598 1595 1592 1589 1586 1582 1578 1575 1571 1568 1564
1594 1596 1597 1599 1600 1601 1602 1603 1604 1605 1606 1607 1608 1609 1609 1610 1611 1611 1612 1612 1612 1612 1612 1611 1611 1611 1610 1608 1606 1604 1602 1600 1597 1594 1591 1588 1585 1581 1577 1573 1570 1566 1563
1593 1595 1596 1597 1598 1599 1601 1602 1603 1604 1604 1606 1607 1608 1609 1609 1609 1609 1609 1610 1610 1610 1610 1610 1610 1609 1608 1607 1605 1604 1601 1599 1596 1593 1590 1587 1583 1580 1576 1572 1569 1565 1562
1593 1593 1595 1595 1596 1597 1599 1600 1601 1602 1603 1604 1605 1607 1608 1609 1607 1607 1607 1607 1607 1608 1608 1608 1608 1608 1606 1605 1603 1602 1600 1598 1595 1592 1589 1585 1582 1578 1574 1570 1567 1563 1561
1591 1592 1593 1594 1595 1596 1597 1598 1599 1601 1602 1603 1604 1605 1605 1605 1604 1604 1604 1604 1605 1605 1605 1605 1605 1605 1604 1603 1601 1600 1598 1596 1593 1590 1587 1584 1580 1576 1572 1568 1565 1562 1558
1590 1591 1592 1592 1593 1594 1595 1596 1597 1598 1599 1601 1602 1602 1603 1603 1603 1603 1602 1602 1602 1602 1602 1602 1601 1601 1600 1600 1599 1597 1595 1593 1591 1588 1585 1581 1578 1574 1570 1566 1563 1560 1556
1587 1589 1590 1590 1591 1592 1593 1593 1594 1595 1596 1598 1598 1599 1600 1600 1600 1601 1600 1599 1599 1599 1598 1597 1597 1597 1596 1596 1595 1594 1592 1590 1588 1585 1582 1579 1575 1571 1567 1563 1560 1557 1554
1585 1586 1587 1588 1589 1589 1590 1591 1591 1592 1593 1594 1595 1595 1595 1596 1596 1597 1596 1596 1595 1595 1594 1594 1593 1592 1592 1592 1591 1590 1588 1586 1584 1582 1579 1576 1572 1569 1564 1560 1556 1553 1550
1581 1582 1583 1584 1585 1586 1587 1587 1588 1588 1589 1590 1591 1591 1591 1591 1592 1592 1592 1591 1591 1590 1589 1589 1589 1588 1588 1587 1586 1585 1584 1582 1580 1578 1576 1572 1569 1565 1561 1557 1553 1550 1546
1576 1578 1579 1580 1581 1582 1583 1583 1584 1584 1585 1585 1586 1586 1586 1586 1587 1587 1587 1588 1587 1586 1584 1584 1584 1584 1583 1583 1582 1581 1579 1578 1576 1574 1572 1569 1566 1561 1557 1553 1550 1547 1543
1571 1573 1574 1575 1576 1577 1578 1579 1579 1580 1580 1581 1581 1581 1581 1582 1582 1582 1582 1583 1583 1581 1578 1579 1579 1579 1579 1578 1577 1576 1575 1574 1572 1570 1568 1565 1561 1557 1554 1550 1547 1544 1541
1564 1566 1567 1568 1569 1571 1572 1573 1573 1574 1574 1575 1576 1576 1577 1577 1577 1577 1577 1577 1577 1577 1574 1573 1574 1574 1573 1573 1572 1571 1570 1569 1567 1565 1563 1560 1557 1554 1551 1547 1544 1541 1538
1557 1559 1560 1562 1562 1564 1565 1566 1566 1567 1568 1569 1570 1570 1571 1571 1571 1572 1572 1572 1571 1571 1569 1568 1568 1568 1567 1567 1566 1566 1565 1563 1561 1560 1558 1556 1553 1550 1546 1543 1540 1537 1534
1550 1552 1553 1554 1555 1556 1557 1557 1558 1559 1560 1561 1562 1563 1564 1565 1565 1565 1565 1566 1565 1565 1564 1563 1563 1562 1561 1561 1560 1559 1558 1557 1556 1555 1553 1551 1549 1546 1543 1540 1537 1534 1531
1542 1543 1544 1545 1546 1547 1549 1550 1551 1552 1552 1553 1555 1555 1556 1557 1558 1558 1559 1558 1558 1558 1557 1556 1555 1555 1554 1554 1553 1552 1552 1552 1552 1551 1549 1546 1544 1542 1540 1537 1536 1532 1529
1532 1534 1535 1537 1538 1539 1540 1542 1543 1544 1544 1545 1546 1547 1548 1548 1549 1550 1551 1551 1551 1550 1549 1548 1547 1547 1547 1546 1546 1546 1544 1544 1544 1544 1542 1540 1539 1537 1535 1532 1531 1528 1525
1523 1525 1526 1528 1529 1530 1531 1532 1533 1534 1534 1535 1537 1538 1539 1540 1541 1541 1541 1542 1542 1541 1540 1539 1538 1538 1537 1537 1536 1537 1538 1537 1536 1536 1536 1533 1534 1533 1530 1528 1526 1524 1522
1514 1516 1517 1518 1519 1519 1521 1523 1524 1523 1524 1524 1524 1525 1527 1529 1530 1531 1531 1532 1533 1531 1530 1530 1528 1527 1526 1527 1527 1527 1530 1526 1528 1529 1527 1527 1528 1527 1525 1523 1521 1518 1516
1505 1506 1507 1508 1508 1509 1511 1512 1513 1513 1512 1512 1513 1514 1514 1515 1518 1518 1518 1518 1518 1519 1519 1518 1515 1516 1515 1516 1519 1520 1520 1520 1521 1519 1521 1523 1522 1521 1520 1519 1517 1515 1513
1495 1496 1498 1498 1499 1500 1501 1501 1502 1502 1501 1501 1501 1502 1502 1503 1505 1506 1505 1504 1505 1505 1505 1505 1505 1505 1505 1507 1507 1509 1511 1514 1514 1512 1515 1516 1517 1516 1514 1514 1512 1512 1510
1487 1488 1489 1489 1489 1490 1491 1492 1492 1491 1489 1489 1491 1491 1491 1491 1492 1494 1491 1492 1492 1492 1492 1494 1495 1496 1496 1496 1496 1501 1501 1504 1505 1507 1509 1510 1512 1510 1510 1508 1508 1507 1507
1479 1479 1479 1480 1480 1479 1481 1481 1481 1481 1479 1479 1480 1480 1481 1482 1482 1482 1482 1481 1479 1481 1483 1483 1482 1484 1484 1487 1489 1489 1492 1496 1497 1500 1502 1504 1504 1509 1506 1504 1503 1504 1503